| time (UTC) | temp C | wind direction | speed KPH | gust KPH | rain 1hr cm | rain 24hr cm | rain mn cm | humidity % | barometer mb |
| 20260508130516 | 11 | 90 | 6.4 | 12.9 | 0.00 | 0.00 | 0.00 | 47 | 1008.3 |
| 20260508125516 | 10 | 90 | 8.0 | 16.1 | 0.00 | 0.00 | 0.00 | 49 | 1008.3 |
| 20260508124516 | 9 | 90 | 8.0 | 12.9 | 0.00 | 0.00 | 0.00 | 50 | 1008.3 |
| 20260508123516 | 8 | 90 | 6.4 | 11.3 | 0.00 | 0.00 | 0.00 | 53 | 1008.3 |
| 20260508122516 | 7 | 90 | 4.8 | 9.7 | 0.00 | 0.00 | 0.00 | 53 | 1008.2 |
| 20260508121516 | 7 | 90 | 8.0 | 12.9 | 0.00 | 0.00 | 0.00 | 53 | 1008.3 |
| 20260508120517 | 7 | 90 | 9.7 | 11.3 | 0.00 | 0.00 | 0.00 | 54 | 1008.1 |
| 20260508115517 | 6 | 90 | 9.7 | 12.9 | 0.00 | 0.00 | 0.00 | 55 | 1008.1 |
| 20260508114516 | 6 | 113 | 8.0 | 11.3 | 0.00 | 0.00 | 0.00 | 56 | 1008.0 |
| 20260508113536 | 6 | 90 | 8.0 | 12.9 | 0.00 | 0.00 | 0.00 | 56 | 1008.0 |
| 20260508112516 | 6 | 90 | 9.7 | 12.9 | 0.00 | 0.00 | 0.00 | 57 | 1008.1 |
| 20260508111516 | 5 | 90 | 8.0 | 12.9 | 0.00 | 0.00 | 0.00 | 58 | 1008.2 |
| 20260508110516 | 5 | 90 | 4.8 | 9.7 | 0.00 | 0.00 | 0.00 | 60 | 1008.0 |
| 20260508105536 | 5 | 90 | 4.8 | 6.4 | 0.00 | 0.00 | 0.00 | 61 | 1008.2 |
| 20260508104516 | 5 | 90 | 3.2 | 4.8 | 0.00 | 0.00 | 0.00 | 61 | 1008.1 |
| 20260508103536 | 5 | 90 | 3.2 | 6.4 | 0.00 | 0.00 | 0.00 | 61 | 1008.2 |
| 20260508102516 | 4 | 90 | 6.4 | 11.3 | 0.00 | 0.00 | 0.00 | 63 | 1008.2 |
| 20260508101516 | 3 | 90 | 3.2 | 6.4 | 0.00 | 0.00 | 0.00 | 66 | 1008.2 |
| 20260508100516 | 4 | 90 | 4.8 | 9.7 | 0.00 | 0.00 | 0.00 | 65 | 1008.2 |
| 20260508095536 | 4 | 90 | 3.2 | 4.8 | 0.00 | 0.00 | 0.00 | 63 | 1008.3 |
| 20260508094518 | 4 | 0.0 | 1.6 | 0.00 | 0.00 | 0.00 | 62 | 1008.4 | |
| 20260508093516 | 4 | 90 | 1.6 | 4.8 | 0.00 | 0.00 | 0.00 | 61 | 1008.4 |
| 20260508092518 | 4 | 0.0 | 0.0 | 0.00 | 0.00 | 0.00 | 61 | 1008.4 | |
| 20260508091516 | 4 | 0.0 | 0.0 | 0.00 | 0.00 | 0.00 | 60 | 1008.6 | |
| 20260508090536 | 5 | 0.0 | 0.0 | 0.00 | 0.00 | 0.00 | 61 | 1008.5 | |
| 20260508085516 | 5 | 0.0 | 0.0 | 0.00 | 0.00 | 0.00 | 60 | 1008.6 | |
| 20260508084516 | 5 | 0.0 | 0.0 | 0.00 | 0.00 | 0.00 | 60 | 1008.6 | |
| 20260508083516 | 5 | 0.0 | 0.0 | 0.00 | 0.00 | 0.00 | 60 | 1008.6 | |
| 20260508082536 | 4 | 0.0 | 0.0 | 0.00 | 0.00 | 0.00 | 60 | 1008.6 | |
| 20260508081516 | 4 | 0.0 | 0.0 | 0.00 | 0.00 | 0.00 | 60 | 1008.7 | |
| 20260508080516 | 4 | 90 | 3.2 | 6.4 | 0.00 | 0.00 | 0.00 | 62 | 1008.7 |
| 20260508075516 | 4 | 0.0 | 4.8 | 0.00 | 0.00 | 0.00 | 64 | 1008.7 | |
| 20260508074516 | 4 | 0 | 1.6 | 4.8 | 0.00 | 0.00 | 0.00 | 66 | 1008.7 |
| 20260508073536 | 4 | 0.0 | 0.0 | 0.00 | 0.00 | 0.00 | 66 | 1008.9 | |
| 20260508072516 | 4 | 0.0 | 0.0 | 0.00 | 0.00 | 0.00 | 66 | 1008.9 | |
| 20260508071517 | 4 | 0.0 | 1.6 | 0.00 | 0.00 | 0.00 | 65 | 1008.9 | |
| 20260508070516 | 5 | 0.0 | 1.6 | 0.00 | 0.00 | 0.00 | 65 | 1009.0 | |
| 20260508065516 | 5 | 0.0 | 0.0 | 0.00 | 0.00 | 0.00 | 65 | 1009.1 | |
| 20260508064536 | 5 | 0.0 | 0.0 | 0.00 | 0.00 | 0.00 | 64 | 1009.2 | |
| 20260508063516 | 5 | 0.0 | 0.0 | 0.00 | 0.00 | 0.00 | 63 | 1009.2 | |
| 20260508062516 | 5 | 0.0 | 0.0 | 0.00 | 0.00 | 0.00 | 63 | 1009.3 | |
| 20260508061516 | 5 | 0.0 | 0.0 | 0.00 | 0.00 | 0.00 | 62 | 1009.3 | |
| 20260508060516 | 5 | 0.0 | 0.0 | 0.00 | 0.00 | 0.00 | 61 | 1009.3 | |
| 20260508055516 | 6 | 0.0 | 0.0 | 0.00 | 0.00 | 0.00 | 61 | 1009.4 | |
| 20260508054516 | 6 | 0.0 | 0.0 | 0.00 | 0.00 | 0.00 | 60 | 1009.5 | |
| 20260508053535 | 6 | 0.0 | 0.0 | 0.00 | 0.00 | 0.00 | 59 | 1009.6 | |
| 20260508052516 | 6 | 0.0 | 0.0 | 0.00 | 0.00 | 0.00 | 58 | 1009.6 | |
| 20260508051516 | 6 | 0.0 | 0.0 | 0.00 | 0.00 | 0.00 | 57 | 1009.6 | |
| 20260508050516 | 7 | 0.0 | 0.0 | 0.00 | 0.00 | 0.00 | 57 | 1009.5 | |
| 20260508045536 | 7 | 0.0 | 0.0 | 0.00 | 0.00 | 0.00 | 56 | 1009.6 | |
| 20260508044516 | 7 | 0.0 | 0.0 | 0.00 | 0.00 | 0.00 | 55 | 1009.7 | |
| 20260508043516 | 7 | 0.0 | 0.0 | 0.00 | 0.00 | 0.00 | 54 | 1009.7 | |
| 20260508042516 | 7 | 0.0 | 0.0 | 0.00 | 0.00 | 0.00 | 54 | 1009.8 | |
| 20260508041536 | 8 | 0.0 | 0.0 | 0.00 | 0.00 | 0.00 | 53 | 1009.8 | |
| 20260508040516 | 8 | 0.0 | 0.0 | 0.00 | 0.00 | 0.00 | 53 | 1009.9 | |
| 20260508035516 | 8 | 0.0 | 0.0 | 0.00 | 0.00 | 0.00 | 52 | 1009.9 | |
| 20260508034516 | 9 | 0.0 | 0.0 | 0.00 | 0.00 | 0.00 | 50 | 1009.8 | |
| 20260508033516 | 10 | 0.0 | 0.0 | 0.00 | 0.00 | 0.00 | 47 | 1009.9 | |
| 20260508032516 | 10 | 0.0 | 0.0 | 0.00 | 0.00 | 0.00 | 44 | 1009.9 | |
| 20260508031515 | 11 | 0.0 | 0.0 | 0.00 | 0.00 | 0.00 | 42 | 1009.8 | |
| 20260508030536 | 11 | 0.0 | 0.0 | 0.00 | 0.00 | 0.00 | 40 | 1009.8 | |
| 20260508025536 | 11 | 0.0 | 0.0 | 0.00 | 0.00 | 0.00 | 38 | 1009.9 | |
| 20260508024515 | 12 | 0.0 | 0.0 | 0.00 | 0.00 | 0.00 | 37 | 1009.8 | |
| 20260508023515 | 12 | 0.0 | 0.0 | 0.00 | 0.00 | 0.00 | 36 | 1009.7 | |
| 20260508022536 | 13 | 0.0 | 0.0 | 0.00 | 0.00 | 0.00 | 37 | 1009.7 | |
| 20260508021516 | 13 | 0.0 | 1.6 | 0.00 | 0.00 | 0.00 | 32 | 1009.6 | |
| 20260508020536 | 14 | 0.0 | 0.0 | 0.00 | 0.00 | 0.00 | 31 | 1009.5 | |
| 20260508015515 | 15 | 0.0 | 3.2 | 0.00 | 0.00 | 0.00 | 29 | 1009.3 | |
| 20260508014535 | 15 | 0.0 | 1.6 | 0.00 | 0.00 | 0.00 | 29 | 1009.2 | |
| 20260508013535 | 15 | 0 | 1.6 | 6.4 | 0.00 | 0.00 | 0.00 | 27 | 1009.1 |
| 20260508012516 | 16 | 158 | 3.2 | 9.7 | 0.00 | 0.00 | 0.00 | 27 | 1009.0 |
| 20260508011516 | 16 | 135 | 4.8 | 9.7 | 0.00 | 0.00 | 0.00 | 26 | 1009.0 |
| 20260508010536 | 16 | 135 | 4.8 | 11.3 | 0.00 | 0.00 | 0.00 | 27 | 1008.8 |
| 20260508005536 | 16 | 135 | 3.2 | 8.0 | 0.00 | 0.00 | 0.00 | 26 | 1008.7 |
| 20260508004516 | 16 | 0 | 4.8 | 8.0 | 0.00 | 0.00 | 0.00 | 25 | 1008.5 |
| 20260508003515 | 16 | 135 | 6.4 | 12.9 | 0.00 | 0.00 | 0.00 | 26 | 1008.4 |
| 20260508002516 | 16 | 135 | 4.8 | 8.0 | 0.00 | 0.00 | 0.00 | 25 | 1008.3 |
| 20260508001535 | 16 | 135 | 4.8 | 11.3 | 0.00 | 0.00 | 0.00 | 24 | 1008.5 |
| 20260508000515 | 17 | 135 | 4.8 | 11.3 | 0.00 | 0.00 | 0.00 | 24 | 1008.4 |
| 20260507235515 | 17 | 135 | 4.8 | 11.3 | 0.00 | 0.00 | 0.00 | 25 | 1008.5 |
| 20260507234516 | 17 | 0 | 3.2 | 9.7 | 0.00 | 0.00 | 0.00 | 24 | 1008.5 |
| 20260507233515 | 17 | 135 | 4.8 | 11.3 | 0.00 | 0.00 | 0.00 | 24 | 1008.6 |
| 20260507232516 | 17 | 135 | 6.4 | 14.5 | 0.00 | 0.00 | 0.00 | 23 | 1008.6 |
| 20260507231517 | 17 | 135 | 9.7 | 19.3 | 0.00 | 0.00 | 0.00 | 23 | 1008.7 |
| 20260507230537 | 17 | 135 | 9.7 | 20.9 | 0.00 | 0.00 | 0.00 | 22 | 1008.6 |
| 20260507225516 | 17 | 158 | 8.0 | 25.7 | 0.00 | 0.00 | 0.00 | 23 | 1008.8 |
| 20260507224517 | 17 | 135 | 4.8 | 14.5 | 0.00 | 0.00 | 0.00 | 24 | 1008.8 |
| 20260507223515 | 17 | 158 | 9.7 | 20.9 | 0.00 | 0.00 | 0.00 | 22 | 1009.0 |
| 20260507222517 | 18 | 135 | 11.3 | 22.5 | 0.00 | 0.00 | 0.00 | 24 | 1009.0 |
| 20260507221516 | 18 | 135 | 9.7 | 17.7 | 0.00 | 0.00 | 0.00 | 23 | 1009.1 |
| 20260507220537 | 18 | 135 | 11.3 | 20.9 | 0.00 | 0.00 | 0.00 | 22 | 1009.3 |
| 20260507215517 | 18 | 135 | 8.0 | 16.1 | 0.00 | 0.00 | 0.00 | 21 | 1009.4 |
| 20260507214518 | 18 | 135 | 6.4 | 14.5 | 0.00 | 0.00 | 0.00 | 24 | 1009.4 |
| 20260507213517 | 18 | 135 | 8.0 | 16.1 | 0.00 | 0.00 | 0.00 | 22 | 1009.7 |
| 20260507212517 | 18 | 113 | 4.8 | 14.5 | 0.00 | 0.00 | 0.00 | 24 | 1009.6 |
| 20260507211517 | 18 | 135 | 6.4 | 16.1 | 0.00 | 0.00 | 0.00 | 23 | 1009.8 |
| 20260507210517 | 18 | 135 | 8.0 | 16.1 | 0.00 | 0.00 | 0.00 | 24 | 1009.6 |
| 20260507205517 | 18 | 135 | 6.4 | 16.1 | 0.00 | 0.00 | 0.00 | 22 | 1009.8 |
| 20260507204517 | 18 | 135 | 8.0 | 22.5 | 0.00 | 0.00 | 0.00 | 23 | 1009.9 |
| 20260507203517 | 17 | 135 | 4.8 | 14.5 | 0.00 | 0.00 | 0.00 | 23 | 1010.0 |
| 20260507202517 | 18 | 135 | 8.0 | 19.3 | 0.00 | 0.00 | 0.00 | 23 | 1010.2 |
| 20260507201517 | 18 | 135 | 8.0 | 17.7 | 0.00 | 0.00 | 0.00 | 23 | 1010.3 |
| 20260507200517 | 17 | 135 | 6.4 | 11.3 | 0.00 | 0.00 | 0.00 | 23 | 1010.4 |
| 20260507195517 | 18 | 135 | 11.3 | 17.7 | 0.00 | 0.00 | 0.00 | 23 | 1010.6 |
| 20260507194517 | 18 | 135 | 4.8 | 11.3 | 0.00 | 0.00 | 0.00 | 26 | 1010.6 |
| 20260507193517 | 18 | 135 | 8.0 | 16.1 | 0.00 | 0.00 | 0.00 | 26 | 1010.8 |
| 20260507192517 | 18 | 135 | 8.0 | 20.9 | 0.00 | 0.00 | 0.00 | 25 | 1010.7 |
| 20260507191517 | 17 | 135 | 8.0 | 20.9 | 0.00 | 0.00 | 0.00 | 24 | 1010.8 |
| 20260507190517 | 17 | 135 | 4.8 | 16.1 | 0.00 | 0.00 | 0.00 | 26 | 1010.7 |
| 20260507185517 | 17 | 158 | 11.3 | 24.1 | 0.00 | 0.00 | 0.00 | 24 | 1010.9 |
| 20260507184537 | 17 | 113 | 6.4 | 11.3 | 0.00 | 0.00 | 0.00 | 25 | 1010.8 |
| 20260507183517 | 16 | 135 | 6.4 | 16.1 | 0.00 | 0.00 | 0.00 | 29 | 1011.1 |
| 20260507182517 | 16 | 158 | 8.0 | 14.5 | 0.00 | 0.00 | 0.00 | 26 | 1011.0 |
| 20260507181537 | 16 | 0 | 6.4 | 16.1 | 0.00 | 0.00 | 0.00 | 26 | 1011.1 |
| 20260507180517 | 16 | 0 | 8.0 | 29.0 | 0.00 | 0.00 | 0.00 | 28 | 1011.1 |
| 20260507175517 | 16 | 23 | 6.4 | 17.7 | 0.00 | 0.00 | 0.00 | 32 | 1011.4 |
| 20260507174517 | 15 | 158 | 6.4 | 14.5 | 0.00 | 0.00 | 0.00 | 28 | 1011.3 |
| 20260507173518 | 16 | 113 | 8.0 | 20.9 | 0.00 | 0.00 | 0.00 | 27 | 1011.4 |
| 20260507172518 | 15 | 135 | 4.8 | 11.3 | 0.00 | 0.00 | 0.00 | 29 | 1011.5 |
| 20260507171517 | 15 | 23 | 8.0 | 20.9 | 0.00 | 0.00 | 0.00 | 30 | 1011.6 |
| 20260507170517 | 15 | 135 | 3.2 | 8.0 | 0.00 | 0.00 | 0.00 | 30 | 1011.7 |
| 20260507165517 | 14 | 158 | 6.4 | 12.9 | 0.00 | 0.00 | 0.00 | 32 | 1011.6 |
| 20260507164517 | 14 | 0 | 8.0 | 16.1 | 0.00 | 0.00 | 0.00 | 31 | 1011.7 |
| 20260507163517 | 13 | 45 | 3.2 | 8.0 | 0.00 | 0.00 | 0.00 | 36 | 1011.7 |
| 20260507162537 | 13 | 45 | 4.8 | 17.7 | 0.00 | 0.00 | 0.00 | 37 | 1011.7 |
| 20260507161517 | 13 | 23 | 4.8 | 12.9 | 0.00 | 0.00 | 0.00 | 34 | 1011.7 |
| 20260507160517 | 12 | 45 | 4.8 | 14.5 | 0.00 | 0.00 | 0.00 | 35 | 1011.8 |
| 20260507155517 | 12 | 158 | 8.0 | 14.5 | 0.00 | 0.00 | 0.00 | 34 | 1011.8 |
| 20260507154517 | 12 | 45 | 4.8 | 14.5 | 0.00 | 0.00 | 0.00 | 37 | 1011.9 |
| 20260507153537 | 11 | 45 | 4.8 | 9.7 | 0.00 | 0.00 | 0.00 | 40 | 1011.9 |
| 20260507152537 | 11 | 45 | 6.4 | 14.5 | 0.00 | 0.00 | 0.00 | 40 | 1011.9 |
| 20260507151517 | 11 | 45 | 3.2 | 8.0 | 0.00 | 0.00 | 0.00 | 41 | 1011.9 |
| 20260507150517 | 10 | 45 | 6.4 | 19.3 | 0.00 | 0.00 | 0.00 | 46 | 1011.9 |
| 20260507145518 | 10 | 45 | 4.8 | 14.5 | 0.00 | 0.00 | 0.00 | 47 | 1011.9 |
| 20260507144517 | 10 | 45 | 4.8 | 14.5 | 0.00 | 0.00 | 0.00 | 48 | 1012.0 |
| 20260507143517 | 10 | 0 | 4.8 | 12.9 | 0.00 | 0.00 | 0.00 | 48 | 1012.0 |
| 20260507142517 | 10 | 158 | 1.6 | 9.7 | 0.00 | 0.00 | 0.00 | 50 | 1012.1 |
| 20260507141517 | 10 | 23 | 3.2 | 9.7 | 0.00 | 0.00 | 0.00 | 50 | 1012.2 |
| 20260507140517 | 10 | 45 | 3.2 | 6.4 | 0.00 | 0.00 | 0.00 | 50 | 1012.3 |
| 20260507135517 | 9 | 45 | 3.2 | 8.0 | 0.00 | 0.00 | 0.00 | 50 | 1012.1 |
| 20260507134517 | 9 | 45 | 3.2 | 8.0 | 0.00 | 0.00 | 0.00 | 51 | 1012.2 |
| 20260507133517 | 8 | 45 | 3.2 | 6.4 | 0.00 | 0.00 | 0.00 | 54 | 1012.1 |
| 20260507132517 | 7 | 68 | 3.2 | 9.7 | 0.00 | 0.00 | 0.00 | 56 | 1012.3 |
| 20260507131517 | 7 | 45 | 3.2 | 4.8 | 0.00 | 0.00 | 0.00 | 60 | 1012.3 |